Time,TemperatureF,DewpointF,PressureIn,WindDirection,WindDirectionDegrees,WindSpeedMPH,WindSpeedGustMPH,Humidity,HourlyPrecipIn,Conditions,Clouds,dailyrainin,SoftwareType,DateUTC
2013-04-15 00:00:00,58.6,49.7,30.06,South,180,0.0,0.0,72,0.00,,OVC075,0.00,VWS V14.01,2013-04-15 04:00:00,
2013-04-15 00:01:00,58.6,49.7,30.06,South,180,0.0,0.0,72,0.00,,RA,0.00,VWS V14.01,2013-04-15 04:01:00,
2013-04-15 00:06:00,58.5,50.6,30.06,South,180,0.0,0.0,75,0.00,,RA,0.00,VWS V14.01,2013-04-15 04:06:00,
2013-04-15 00:11:00,58.5,50.2,30.06,SSE,158,6.3,6.3,74,0.00,,RA,0.00,VWS V14.01,2013-04-15 04:11:00,
2013-04-15 00:16:00,59.0,48.9,30.06,ESE,112,4.9,4.9,69,0.00,,RA,0.00,VWS V14.01,2013-04-15 04:16:00,
2013-04-15 00:22:00,59.2,47.8,30.06,South,180,2.7,3.1,66,0.00,,-RA,0.00,VWS V14.01,2013-04-15 04:22:00,
2013-04-15 00:27:00,59.2,47.0,30.06,SSE,158,3.6,3.6,64,0.00,,-RA,0.00,VWS V14.01,2013-04-15 04:27:00,
2013-04-15 00:32:00,59.2,45.8,30.06,SSW,202,2.7,4.0,61,0.00,,-RA,0.00,VWS V14.01,2013-04-15 04:32:00,
2013-04-15 00:37:00,59.2,46.2,30.06,SSW,202,0.0,2.2,62,0.00,,-RA,0.00,VWS V14.01,2013-04-15 04:37:00,
2013-04-15 00:42:00,58.5,46.8,30.09,SSW,202,0.0,0.0,65,0.00,,RA,0.00,VWS V14.01,2013-04-15 04:42:00,
2013-04-15 00:47:00,58.3,47.0,30.09,SSW,202,0.0,3.6,66,0.00,,RA,0.00,VWS V14.01,2013-04-15 04:47:00,
2013-04-15 00:52:00,57.9,47.4,30.09,SSE,158,0.0,3.1,68,0.00,,RA,0.00,VWS V14.01,2013-04-15 04:52:00,
2013-04-15 00:57:00,57.9,47.8,30.06,SSE,158,5.8,5.8,69,0.00,,RA,0.00,VWS V14.01,2013-04-15 04:57:00,
2013-04-15 01:02:00,57.4,47.7,30.06,SSE,158,2.7,4.0,70,0.00,,-RA,0.00,VWS V14.01,2013-04-15 05:02:00,
2013-04-15 01:07:00,57.0,48.5,30.06,SSE,158,4.9,4.9,73,0.00,,-RA,0.00,VWS V14.01,2013-04-15 05:07:00,
2013-04-15 01:13:00,56.5,49.0,30.09,SSE,158,2.7,3.1,76,0.00,,-RA,0.00,VWS V14.01,2013-04-15 05:13:00,
2013-04-15 01:18:00,56.1,50.0,30.09,SSE,158,3.6,3.6,80,0.00,,-RA,0.00,VWS V14.01,2013-04-15 05:18:00,
2013-04-15 01:23:00,55.8,50.4,30.09,SSE,158,0.0,0.0,82,0.00,,-RA,0.00,VWS V14.01,2013-04-15 05:23:00,
2013-04-15 01:28:00,55.4,50.7,30.06,SSE,158,0.0,0.0,84,0.00,,-RA,0.00,VWS V14.01,2013-04-15 05:28:00,
2013-04-15 01:33:00,55.2,50.8,30.06,SSE,158,0.0,0.0,85,0.00,,-RA,0.00,VWS V14.01,2013-04-15 05:33:00,
2013-04-15 01:38:00,55.0,51.9,30.06,SSE,158,0.0,0.0,89,0.04,,-RA,0.04,VWS V14.01,2013-04-15 05:38:00,
2013-04-15 01:43:00,54.9,52.3,30.06,SSE,158,0.0,0.0,91,0.04,,,0.04,VWS V14.01,2013-04-15 05:43:00,
2013-04-15 01:48:00,54.7,52.7,30.06,SSE,158,0.0,0.0,93,0.04,,,0.04,VWS V14.01,2013-04-15 05:48:00,
2013-04-15 01:53:00,54.5,52.8,30.06,SSE,158,0.0,0.0,94,0.08,,,0.08,VWS V14.01,2013-04-15 05:53:00,
2013-04-15 01:58:00,54.5,53.1,30.09,SSE,158,0.0,0.0,95,0.08,,,0.08,VWS V14.01,2013-04-15 05:58:00,
2013-04-15 02:03:00,54.3,53.2,30.09,South,180,0.0,0.0,96,0.08,, +RA,0.08,VWS V14.01,2013-04-15 06:03:00,
2013-04-15 02:08:00,54.3,53.2,30.09,South,180,0.0,0.0,96,0.08,, +RA,0.08,VWS V14.01,2013-04-15 06:08:00,
2013-04-15 02:13:00,54.1,53.3,30.06,South,180,0.0,0.0,97,0.13,, +RA,0.13,VWS V14.01,2013-04-15 06:13:00,
2013-04-15 02:19:00,54.1,53.6,30.06,South,180,0.0,0.0,98,0.13,, +RA,0.13,VWS V14.01,2013-04-15 06:19:00,
2013-04-15 02:24:00,54.1,53.6,30.06,South,180,0.0,0.0,98,0.17,,RA,0.17,VWS V14.01,2013-04-15 06:24:00,
2013-04-15 02:29:00,54.3,53.8,30.06,NNE,22,0.0,0.0,98,0.17,,RA,0.17,VWS V14.01,2013-04-15 06:29:00,
2013-04-15 02:34:00,54.1,53.6,30.06,NNE,22,0.0,0.0,98,0.17,,RA,0.17,VWS V14.01,2013-04-15 06:34:00,
2013-04-15 02:39:00,54.1,53.6,30.06,NNE,22,0.0,0.0,98,0.13,,RA,0.17,VWS V14.01,2013-04-15 06:39:00,
2013-04-15 02:44:00,54.1,53.6,30.06,NNE,22,0.0,0.0,98,0.13,,RA,0.17,VWS V14.01,2013-04-15 06:44:00,
2013-04-15 02:49:00,54.3,53.8,30.06,NNE,22,0.0,0.0,98,0.13,,RA,0.17,VWS V14.01,2013-04-15 06:49:00,
2013-04-15 02:54:00,54.3,53.8,30.06,NNE,22,0.0,0.0,98,0.13,,RA,0.17,VWS V14.01,2013-04-15 06:54:00,
2013-04-15 02:59:00,54.1,53.6,30.06,NNE,22,0.0,0.0,98,0.09,,RA,0.17,VWS V14.01,2013-04-15 06:59:00,
2013-04-15 03:04:00,54.1,53.6,30.06,NNE,22,0.0,0.0,98,0.09,,RA,0.17,VWS V14.01,2013-04-15 07:04:00,
2013-04-15 03:41:00,54.1,53.6,30.06,NNE,22,0.0,0.0,98,0.04,,,0.21,VWS V14.01,2013-04-15 07:41:00,
2013-04-15 03:42:00,54.1,53.6,30.06,NNE,22,0.0,0.0,98,0.04,,,0.21,VWS V14.01,2013-04-15 07:42:00,
2013-04-15 03:47:00,54.1,53.6,30.06,NNE,22,0.0,0.0,98,0.04,,,0.21,VWS V14.01,2013-04-15 07:47:00,
2013-04-15 03:48:00,54.1,53.6,30.06,NNE,22,0.0,0.0,98,0.04,,,0.21,VWS V14.01,2013-04-15 07:48:00,
2013-04-15 03:51:00,54.3,53.8,30.06,NNE,22,0.0,0.0,98,0.04,,,0.21,VWS V14.01,2013-04-15 07:51:00,
2013-04-15 03:56:00,54.3,53.8,30.06,NNE,22,0.0,0.0,98,0.04,,,0.21,VWS V14.01,2013-04-15 07:56:00,
2013-04-15 04:01:00,54.3,53.8,30.06,North,0,3.1,3.1,98,0.04,,-RA,0.21,VWS V14.01,2013-04-15 08:01:00,
2013-04-15 04:06:00,54.3,53.8,30.06,NE,45,0.0,0.0,98,0.04,,-RA,0.21,VWS V14.01,2013-04-15 08:06:00,
2013-04-15 04:12:00,54.3,53.8,30.06,NE,45,0.0,0.0,98,0.04,,-RA,0.21,VWS V14.01,2013-04-15 08:12:00,
2013-04-15 04:17:00,54.5,54.0,30.06,NNE,22,0.0,0.0,98,0.04,,-RA,0.21,VWS V14.01,2013-04-15 08:17:00,
2013-04-15 04:22:00,54.5,54.0,30.06,NNE,22,0.0,0.0,98,0.04,,,0.21,VWS V14.01,2013-04-15 08:22:00,
2013-04-15 04:27:00,54.5,54.0,30.06,North,0,0.0,0.0,98,0.04,,,0.21,VWS V14.01,2013-04-15 08:27:00,
2013-04-15 04:32:00,54.5,54.0,30.06,NNE,22,0.0,0.0,98,0.00,,,0.21,VWS V14.01,2013-04-15 08:32:00,
2013-04-15 04:35:00,54.5,54.0,30.06,NNE,22,0.0,0.0,98,0.00,,,0.21,VWS V14.01,2013-04-15 08:35:00,
2013-04-15 04:40:00,54.5,54.0,30.06,NNE,22,0.0,0.0,98,0.00,,,0.21,VWS V14.01,2013-04-15 08:40:00,
2013-04-15 04:41:00,54.5,54.0,30.06,NNE,22,0.0,0.0,98,0.00,,,0.21,VWS V14.01,2013-04-15 08:41:00,
2013-04-15 04:46:00,54.5,54.0,30.06,NNE,22,0.0,0.0,98,0.00,,,0.21,VWS V14.01,2013-04-15 08:46:00,
2013-04-15 04:51:00,54.5,54.0,30.06,NNE,22,0.0,0.0,98,0.00,,,0.21,VWS V14.01,2013-04-15 08:51:00,
2013-04-15 04:56:00,54.5,54.0,30.06,SE,135,0.0,0.0,98,0.00,,,0.21,VWS V14.01,2013-04-15 08:56:00,
2013-04-15 05:01:00,54.5,54.0,30.06,ENE,68,0.0,0.0,98,0.00,,,0.21,VWS V14.01,2013-04-15 09:01:00,
2013-04-15 05:06:00,54.5,54.0,30.06,NE,45,0.0,0.0,98,0.00,,,0.21,VWS V14.01,2013-04-15 09:06:00,
2013-04-15 05:11:00,54.5,54.0,30.06,NNE,22,0.0,2.7,98,0.00,,,0.21,VWS V14.01,2013-04-15 09:11:00,
2013-04-15 05:16:00,54.5,54.0,30.06,NNE,22,0.0,0.0,98,0.00,,,0.21,VWS V14.01,2013-04-15 09:16:00,
2013-04-15 05:21:00,54.7,54.1,30.06,NNE,22,0.0,0.0,98,0.04,,RA,0.25,VWS V14.01,2013-04-15 09:21:00,
2013-04-15 05:26:00,54.5,54.0,30.06,NNE,22,0.0,0.0,98,0.04,,RA,0.25,VWS V14.01,2013-04-15 09:26:00,
2013-04-15 05:32:00,54.7,54.1,30.06,NNE,22,0.0,2.7,98,0.04,,RA,0.25,VWS V14.01,2013-04-15 09:32:00,
2013-04-15 05:37:00,54.7,54.1,30.06,North,0,0.0,0.0,98,0.04,,RA,0.25,VWS V14.01,2013-04-15 09:37:00,
2013-04-15 05:42:00,54.7,54.1,30.09,North,0,0.0,0.0,98,0.04,,,0.25,VWS V14.01,2013-04-15 09:42:00,
2013-04-15 05:47:00,54.9,54.3,30.09,North,0,0.0,0.0,98,0.04,,,0.25,VWS V14.01,2013-04-15 09:47:00,
2013-04-15 05:52:00,54.7,54.1,30.09,NE,45,0.0,0.0,98,0.04,,,0.25,VWS V14.01,2013-04-15 09:52:00,
2013-04-15 05:57:00,54.7,54.1,30.06,NNE,22,0.0,0.0,98,0.04,,,0.25,VWS V14.01,2013-04-15 09:57:00,
2013-04-15 06:02:00,54.7,54.1,30.06,NNE,22,0.0,0.0,98,0.04,,OVC018,0.25,VWS V14.01,2013-04-15 10:02:00,
2013-04-15 06:07:00,54.7,54.1,30.06,NNE,22,0.0,0.0,98,0.04,,OVC018,0.25,VWS V14.01,2013-04-15 10:07:00,
2013-04-15 06:12:00,54.9,54.3,30.06,North,0,0.0,0.0,98,0.04,,OVC018,0.25,VWS V14.01,2013-04-15 10:12:00,
2013-04-15 06:17:00,54.9,54.3,30.06,North,0,0.0,0.0,98,0.04,,OVC018,0.25,VWS V14.01,2013-04-15 10:17:00,
2013-04-15 06:23:00,54.9,54.3,30.06,North,0,0.0,0.0,98,0.00,,,0.25,VWS V14.01,2013-04-15 10:23:00,
2013-04-15 06:28:00,54.9,54.3,30.06,North,0,0.0,0.0,98,0.00,,,0.25,VWS V14.01,2013-04-15 10:28:00,
2013-04-15 06:33:00,54.9,54.3,30.06,North,0,0.0,0.0,98,0.04,,,0.29,VWS V14.01,2013-04-15 10:33:00,
2013-04-15 06:38:00,54.9,54.3,30.06,East,90,0.0,0.0,98,0.04,,,0.29,VWS V14.01,2013-04-15 10:38:00,
2013-04-15 06:43:00,54.9,54.3,30.06,NNE,22,0.0,0.0,98,0.04,,RA,0.29,VWS V14.01,2013-04-15 10:43:00,
2013-04-15 06:48:00,54.9,54.3,30.06,ENE,68,0.0,0.0,98,0.04,,RA,0.29,VWS V14.01,2013-04-15 10:48:00,
2013-04-15 06:53:00,54.9,54.3,30.06,ENE,68,0.0,0.0,98,0.04,,RA,0.29,VWS V14.01,2013-04-15 10:53:00,
2013-04-15 06:58:00,54.9,54.3,30.09,ENE,68,0.0,0.0,98,0.04,,RA,0.29,VWS V14.01,2013-04-15 10:58:00,
2013-04-15 07:03:00,54.9,54.3,30.09,ENE,68,0.0,0.0,98,0.04,,,0.29,VWS V14.01,2013-04-15 11:03:00,
2013-04-15 07:08:00,54.9,54.3,30.09,NNE,22,0.0,0.0,98,0.04,,,0.29,VWS V14.01,2013-04-15 11:08:00,
2013-04-15 07:13:00,54.9,54.3,30.09,NNE,22,0.0,0.0,98,0.04,,,0.29,VWS V14.01,2013-04-15 11:13:00,
2013-04-15 07:19:00,54.9,54.3,30.09,NNE,22,0.0,0.0,98,0.04,,,0.29,VWS V14.01,2013-04-15 11:19:00,
2013-04-15 07:24:00,54.9,54.3,30.09,NNE,22,0.0,0.0,98,0.04,,,0.29,VWS V14.01,2013-04-15 11:24:00,
2013-04-15 07:29:00,54.9,54.3,30.09,NE,45,0.0,0.0,98,0.04,,,0.29,VWS V14.01,2013-04-15 11:29:00,
2013-04-15 07:34:00,54.9,54.3,30.09,NE,45,0.0,0.0,98,0.00,,,0.29,VWS V14.01,2013-04-15 11:34:00,
2013-04-15 07:39:00,54.9,54.3,30.09,NE,45,0.0,0.0,98,0.00,,,0.29,VWS V14.01,2013-04-15 11:39:00,
2013-04-15 07:44:00,54.9,54.3,30.09,NE,45,0.0,0.0,98,0.00,,,0.29,VWS V14.01,2013-04-15 11:44:00,
2013-04-15 07:49:00,55.0,54.5,30.09,NE,45,0.0,0.0,98,0.00,,,0.29,VWS V14.01,2013-04-15 11:49:00,
2013-04-15 07:54:00,55.2,54.7,30.09,NE,45,0.0,0.0,98,0.00,,,0.29,VWS V14.01,2013-04-15 11:54:00,
2013-04-15 07:59:00,55.2,54.7,30.09,NE,45,0.0,0.0,98,0.00,,,0.29,VWS V14.01,2013-04-15 11:59:00,
2013-04-15 08:04:00,55.2,54.7,30.09,NE,45,0.0,0.0,98,0.00,,OVC008,0.29,VWS V14.01,2013-04-15 12:04:00,
2013-04-15 08:09:00,55.2,54.7,30.09,NE,45,0.0,0.0,98,0.00,,OVC008,0.29,VWS V14.01,2013-04-15 12:09:00,
2013-04-15 08:14:00,55.2,54.7,30.09,North,0,0.0,0.0,98,0.00,,OVC008,0.29,VWS V14.01,2013-04-15 12:14:00,
2013-04-15 08:19:00,55.0,54.5,30.09,NNE,22,2.2,2.2,98,0.00,,OVC008,0.29,VWS V14.01,2013-04-15 12:19:00,
2013-04-15 08:24:00,55.0,54.5,30.09,NNE,22,0.0,0.0,98,0.00,,-RA,0.29,VWS V14.01,2013-04-15 12:24:00,
2013-04-15 08:29:00,55.0,54.5,30.09,NNE,22,0.0,0.0,98,0.00,,-RA,0.29,VWS V14.01,2013-04-15 12:29:00,
2013-04-15 08:34:00,55.2,54.7,30.09,NNE,22,0.0,0.0,98,0.00,,-RA,0.29,VWS V14.01,2013-04-15 12:34:00,
2013-04-15 08:40:00,55.0,54.5,30.09,NE,45,0.0,0.0,98,0.00,,-RA,0.29,VWS V14.01,2013-04-15 12:40:00,
2013-04-15 08:45:00,55.0,54.5,30.09,NNW,338,0.0,0.0,98,0.00,,OVC015,0.29,VWS V14.01,2013-04-15 12:45:00,
2013-04-15 08:50:00,55.0,54.5,30.09,NNW,338,0.0,0.0,98,0.00,,OVC015,0.29,VWS V14.01,2013-04-15 12:50:00,
2013-04-15 08:55:00,55.0,54.5,30.12,NNW,338,0.0,0.0,98,0.00,,OVC015,0.29,VWS V14.01,2013-04-15 12:55:00,
2013-04-15 09:00:00,55.0,54.5,30.12,NNW,338,0.0,0.0,98,0.00,,OVC015,0.29,VWS V14.01,2013-04-15 13:00:00,
2013-04-15 09:05:00,55.2,54.7,30.12,NNW,338,0.0,0.0,98,0.00,,,0.29,VWS V14.01,2013-04-15 13:05:00,
2013-04-15 09:10:00,55.2,54.7,30.12,NNW,338,0.0,0.0,98,0.00,,,0.29,VWS V14.01,2013-04-15 13:10:00,
2013-04-15 09:15:00,55.4,54.8,30.12,NNW,338,0.0,0.0,98,0.04,,,0.33,VWS V14.01,2013-04-15 13:15:00,
2013-04-15 09:20:00,55.4,54.8,30.12,NNW,338,0.0,0.0,98,0.04,,,0.33,VWS V14.01,2013-04-15 13:20:00,
2013-04-15 09:25:00,55.6,55.0,30.12,NNW,338,0.0,0.0,98,0.04,,,0.33,VWS V14.01,2013-04-15 13:25:00,
2013-04-15 09:30:00,55.6,55.0,30.12,NNW,338,0.0,0.0,98,0.04,,,0.33,VWS V14.01,2013-04-15 13:30:00,
2013-04-15 09:35:00,55.8,55.2,30.12,NNW,338,0.0,0.0,98,0.04,,,0.33,VWS V14.01,2013-04-15 13:35:00,
2013-04-15 09:40:00,55.6,55.0,30.12,NNE,22,0.0,0.0,98,0.04,,OVC010,0.33,VWS V14.01,2013-04-15 13:40:00,
2013-04-15 09:45:00,55.6,55.0,30.12,NNE,22,0.0,0.0,98,0.04,,OVC010,0.33,VWS V14.01,2013-04-15 13:45:00,
2013-04-15 09:50:00,55.6,55.0,30.12,NNW,338,0.0,0.0,98,0.04,,OVC010,0.33,VWS V14.01,2013-04-15 13:50:00,
2013-04-15 09:55:00,55.6,55.0,30.12,NNW,338,0.0,0.0,98,0.04,,OVC010,0.33,VWS V14.01,2013-04-15 13:55:00,
2013-04-15 10:00:00,55.4,54.8,30.12,NNW,338,0.0,0.0,98,0.04,,,0.33,VWS V14.01,2013-04-15 14:00:00,
2013-04-15 10:05:00,55.6,55.0,30.12,NNW,338,0.0,0.0,98,0.04,,,0.33,VWS V14.01,2013-04-15 14:05:00,
2013-04-15 10:10:00,55.6,55.0,30.12,NNW,338,0.0,0.0,98,0.04,,,0.33,VWS V14.01,2013-04-15 14:10:00,
2013-04-15 10:15:00,55.6,55.0,30.12,NNW,338,0.0,0.0,98,0.00,,,0.33,VWS V14.01,2013-04-15 14:15:00,
2013-04-15 10:21:00,55.8,55.2,30.12,NNW,338,0.0,0.0,98,0.00,,OVC015,0.33,VWS V14.01,2013-04-15 14:21:00,
2013-04-15 10:26:00,55.8,55.2,30.12,NNE,22,0.0,0.0,98,0.00,,OVC015,0.33,VWS V14.01,2013-04-15 14:26:00,
2013-04-15 10:31:00,55.8,55.2,30.12,NNE,22,0.0,0.0,98,0.00,,OVC015,0.33,VWS V14.01,2013-04-15 14:31:00,
2013-04-15 10:36:00,55.8,55.2,30.12,NNE,22,0.0,0.0,98,0.00,,OVC015,0.33,VWS V14.01,2013-04-15 14:36:00,
2013-04-15 10:42:00,56.1,55.6,30.12,NNE,22,0.0,0.0,98,0.00,,OVC017,0.33,VWS V14.01,2013-04-15 14:42:00,
2013-04-15 10:47:00,56.3,55.8,30.12,NNE,22,0.0,0.0,98,0.00,,OVC017,0.33,VWS V14.01,2013-04-15 14:47:00,
2013-04-15 10:52:00,56.3,55.8,30.12,NNE,22,0.0,0.0,98,0.00,,OVC017,0.33,VWS V14.01,2013-04-15 14:52:00,
2013-04-15 10:57:00,56.7,56.1,30.12,NNE,22,0.0,0.0,98,0.00,,OVC017,0.33,VWS V14.01,2013-04-15 14:57:00,
2013-04-15 11:02:00,56.7,56.1,30.12,NNE,22,0.0,0.0,98,0.00,,OVC017,0.33,VWS V14.01,2013-04-15 15:02:00,
2013-04-15 11:07:00,56.7,56.1,30.12,NNE,22,0.0,0.0,98,0.00,,OVC017,0.33,VWS V14.01,2013-04-15 15:07:00,
2013-04-15 11:12:00,56.8,56.3,30.12,NNE,22,0.0,0.0,98,0.00,,OVC017,0.33,VWS V14.01,2013-04-15 15:12:00,
2013-04-15 11:17:00,57.2,56.6,30.12,NNE,22,0.0,0.0,98,0.00,,OVC017,0.33,VWS V14.01,2013-04-15 15:17:00,
2013-04-15 11:23:00,57.6,57.0,30.12,ENE,68,0.0,0.0,98,0.00,,OVC019,0.33,VWS V14.01,2013-04-15 15:23:00,
2013-04-15 11:28:00,57.6,57.0,30.12,NNE,22,0.0,0.0,98,0.00,,OVC019,0.33,VWS V14.01,2013-04-15 15:28:00,
2013-04-15 11:33:00,57.9,57.4,30.12,ENE,68,0.0,0.0,98,0.00,,OVC019,0.33,VWS V14.01,2013-04-15 15:33:00,
2013-04-15 11:38:00,57.9,57.4,30.12,North,0,0.0,0.0,98,0.00,,OVC019,0.33,VWS V14.01,2013-04-15 15:38:00,
2013-04-15 11:43:00,58.1,57.5,30.12,North,0,0.0,0.0,98,0.00,,OVC017,0.33,VWS V14.01,2013-04-15 15:43:00,
2013-04-15 11:48:00,58.1,57.5,30.12,NE,45,0.0,3.1,98,0.00,,OVC017,0.33,VWS V14.01,2013-04-15 15:48:00,
2013-04-15 11:53:00,57.9,57.4,30.12,NNE,22,2.2,2.7,98,0.00,,OVC017,0.33,VWS V14.01,2013-04-15 15:53:00,
2013-04-15 11:58:00,57.9,57.4,30.12,NNE,22,0.0,0.0,98,0.00,,OVC017,0.33,VWS V14.01,2013-04-15 15:58:00,
2013-04-15 12:03:00,57.9,57.1,30.12,North,0,2.7,2.7,97,0.00,,OVC015,0.33,VWS V14.01,2013-04-15 16:03:00,
2013-04-15 12:08:00,57.7,56.6,30.12,NNE,22,3.1,3.1,96,0.00,,OVC015,0.33,VWS V14.01,2013-04-15 16:08:00,
2013-04-15 12:13:00,57.7,56.3,30.15,NE,45,2.7,2.7,95,0.00,,OVC015,0.33,VWS V14.01,2013-04-15 16:13:00,
2013-04-15 12:18:00,57.9,56.5,30.15,ENE,68,0.0,0.0,95,0.00,,OVC015,0.33,VWS V14.01,2013-04-15 16:18:00,
2013-04-15 12:23:00,57.9,56.5,30.15,NNE,22,2.2,2.7,95,0.00,,OVC015,0.33,VWS V14.01,2013-04-15 16:23:00,
2013-04-15 12:28:00,58.1,56.4,30.15,ENE,68,2.7,3.1,94,0.00,,OVC015,0.33,VWS V14.01,2013-04-15 16:28:00,
2013-04-15 12:33:00,58.1,56.4,30.15,NNE,22,2.7,2.7,94,0.00,,OVC015,0.33,VWS V14.01,2013-04-15 16:33:00,
2013-04-15 12:38:00,57.9,56.2,30.15,NE,45,3.1,3.1,94,0.00,,OVC015,0.33,VWS V14.01,2013-04-15 16:38:00,
2013-04-15 12:43:00,58.1,56.4,30.15,SSE,158,3.1,3.1,94,0.00,,OVC013,0.33,VWS V14.01,2013-04-15 16:43:00,
2013-04-15 12:48:00,58.1,56.1,30.15,NE,45,0.0,0.0,93,0.00,,OVC013,0.33,VWS V14.01,2013-04-15 16:48:00,
2013-04-15 12:53:00,58.3,56.6,30.15,NE,45,0.0,0.0,94,0.00,,OVC013,0.33,VWS V14.01,2013-04-15 16:53:00,
2013-04-15 12:58:00,58.1,56.4,30.15,NE,45,0.0,0.0,94,0.00,,OVC013,0.33,VWS V14.01,2013-04-15 16:58:00,
2013-04-15 13:03:00,58.1,56.1,30.15,NE,45,0.0,0.0,93,0.00,,OVC013,0.33,VWS V14.01,2013-04-15 17:03:00,
2013-04-15 13:08:00,57.9,55.9,30.15,NNE,22,2.2,2.7,93,0.00,,OVC013,0.33,VWS V14.01,2013-04-15 17:08:00,
2013-04-15 13:14:00,57.9,55.9,30.15,NNE,22,2.7,3.1,93,0.00,,OVC013,0.33,VWS V14.01,2013-04-15 17:14:00,
2013-04-15 13:19:00,57.9,55.9,30.15,NNE,22,0.0,2.2,93,0.00,,OVC013,0.33,VWS V14.01,2013-04-15 17:19:00,
2013-04-15 13:21:00,57.9,55.9,30.15,NNE,22,2.7,3.1,93,0.00,,OVC011,0.33,VWS V14.01,2013-04-15 17:21:00,
2013-04-15 13:22:00,57.9,55.9,30.15,NNE,22,2.2,2.7,93,0.00,,OVC011,0.33,VWS V14.01,2013-04-15 17:22:00,
2013-04-15 13:26:00,58.1,56.1,30.15,NNE,22,0.0,0.0,93,0.00,,OVC011,0.33,VWS V14.01,2013-04-15 17:26:00,
2013-04-15 13:31:00,58.1,56.4,30.15,NNE,22,0.0,0.0,94,0.00,,OVC011,0.33,VWS V14.01,2013-04-15 17:31:00,
2013-04-15 13:36:00,58.3,56.6,30.15,NNE,22,3.1,3.1,94,0.00,,OVC011,0.33,VWS V14.01,2013-04-15 17:36:00,
2013-04-15 13:41:00,58.1,56.4,30.15,NNE,22,2.7,2.7,94,0.00,,OVC011,0.33,VWS V14.01,2013-04-15 17:41:00,
2013-04-15 13:46:00,58.1,56.4,30.15,NNE,22,2.7,3.6,94,0.00,,OVC011,0.33,VWS V14.01,2013-04-15 17:46:00,
2013-04-15 13:52:00,58.3,56.6,30.15,NNE,22,3.1,3.1,94,0.00,,OVC011,0.33,VWS V14.01,2013-04-15 17:52:00,
2013-04-15 13:57:00,58.3,56.9,30.15,NNE,22,4.0,4.0,95,0.00,,OVC011,0.33,VWS V14.01,2013-04-15 17:57:00,
2013-04-15 14:02:00,58.1,56.7,30.15,NNE,22,2.7,2.7,95,0.00,,OVC011,0.33,VWS V14.01,2013-04-15 18:02:00,
2013-04-15 14:07:00,58.1,56.4,30.15,NNE,22,3.1,4.0,94,0.00,,OVC011,0.33,VWS V14.01,2013-04-15 18:07:00,
2013-04-15 14:12:00,58.3,56.6,30.15,NNE,22,2.2,2.7,94,0.00,,OVC011,0.33,VWS V14.01,2013-04-15 18:12:00,
2013-04-15 14:17:00,58.5,56.7,30.15,NE,45,4.0,4.0,94,0.00,,OVC011,0.33,VWS V14.01,2013-04-15 18:17:00,
2013-04-15 14:22:00,58.3,56.6,30.15,ENE,68,2.2,2.2,94,0.00,,OVC011,0.33,VWS V14.01,2013-04-15 18:22:00,
2013-04-15 14:27:00,58.3,56.6,30.15,NNE,22,0.0,0.0,94,0.00,,OVC011,0.33,VWS V14.01,2013-04-15 18:27:00,
2013-04-15 14:29:00,58.5,56.7,30.15,NNE,22,3.1,3.1,94,0.00,,OVC011,0.33,VWS V14.01,2013-04-15 18:29:00,
2013-04-15 14:34:00,58.1,56.4,30.15,North,0,3.1,4.0,94,0.00,,OVC011,0.33,VWS V14.01,2013-04-15 18:34:00,
2013-04-15 14:39:00,58.3,56.6,30.15,NNE,22,0.0,0.0,94,0.00,,OVC011,0.33,VWS V14.01,2013-04-15 18:39:00,
2013-04-15 14:44:00,58.8,57.1,30.18,North,0,2.2,2.2,94,0.00,,OVC011,0.33,VWS V14.01,2013-04-15 18:44:00,
2013-04-15 14:49:00,58.8,57.1,30.18,North,0,0.0,2.7,94,0.00,,OVC011,0.33,VWS V14.01,2013-04-15 18:49:00,
2013-04-15 14:54:00,59.0,57.0,30.18,ENE,68,2.2,4.0,93,0.00,,OVC011,0.33,VWS V14.01,2013-04-15 18:54:00,
2013-04-15 14:59:00,59.0,56.7,30.15,NNE,22,2.7,2.7,92,0.00,,OVC011,0.33,VWS V14.01,2013-04-15 18:59:00,
2013-04-15 15:05:00,59.0,56.7,30.15,ENE,68,2.7,4.0,92,0.00,,OVC013,0.33,VWS V14.01,2013-04-15 19:05:00,
2013-04-15 15:10:00,59.2,56.6,30.18,ENE,68,0.0,3.6,91,0.00,,OVC013,0.33,VWS V14.01,2013-04-15 19:10:00,
2013-04-15 15:15:00,59.2,56.6,30.18,NNW,338,0.0,2.7,91,0.00,,OVC013,0.33,VWS V14.01,2013-04-15 19:15:00,
2013-04-15 15:20:00,59.4,56.7,30.18,NE,45,3.1,4.0,91,0.00,,OVC013,0.33,VWS V14.01,2013-04-15 19:20:00,
2013-04-15 15:25:00,59.7,56.8,30.15,NE,45,0.0,3.1,90,0.00,,OVC011,0.33,VWS V14.01,2013-04-15 19:25:00,
2013-04-15 15:30:00,59.9,57.0,30.15,ESE,112,0.0,2.2,90,0.00,,OVC011,0.33,VWS V14.01,2013-04-15 19:30:00,
2013-04-15 15:35:00,60.3,56.7,30.15,North,0,4.9,4.9,88,0.00,,OVC011,0.33,VWS V14.01,2013-04-15 19:35:00,
2013-04-15 15:40:00,60.3,56.7,30.18,ENE,68,0.0,0.0,88,0.00,,OVC011,0.33,VWS V14.01,2013-04-15 19:40:00,
2013-04-15 15:46:00,60.3,56.7,30.18,ENE,68,0.0,2.2,88,0.00,,OVC011,0.33,VWS V14.01,2013-04-15 19:46:00,
2013-04-15 15:52:00,60.1,55.6,30.18,NNE,22,2.7,2.7,85,0.00,,OVC011,0.33,VWS V14.01,2013-04-15 19:52:00,
2013-04-15 15:57:00,60.1,55.6,30.15,NNE,22,3.6,3.6,85,0.00,,OVC011,0.33,VWS V14.01,2013-04-15 19:57:00,
2013-04-15 15:58:00,60.1,55.6,30.15,NNE,22,2.7,3.6,85,0.00,,OVC011,0.33,VWS V14.01,2013-04-15 19:58:00,
2013-04-15 15:59:00,60.1,55.6,30.15,NNE,22,2.7,2.7,85,0.00,,OVC011,0.33,VWS V14.01,2013-04-15 19:59:00,
2013-04-15 16:02:00,59.7,55.2,30.15,NNE,22,2.2,2.7,85,0.00,,OVC011,0.33,VWS V14.01,2013-04-15 20:02:00,
2013-04-15 16:03:00,59.7,55.2,30.15,NNE,22,2.2,2.7,85,0.00,,OVC011,0.33,VWS V14.01,2013-04-15 20:03:00,
2013-04-15 16:08:00,59.7,55.5,30.15,NNE,22,3.6,3.6,86,0.00,,OVC011,0.33,VWS V14.01,2013-04-15 20:08:00,
2013-04-15 16:13:00,59.5,55.3,30.15,NNE,22,3.6,3.6,86,0.00,,OVC011,0.33,VWS V14.01,2013-04-15 20:13:00,
2013-04-15 16:18:00,59.4,55.5,30.15,NE,45,2.2,2.2,87,0.00,,OVC011,0.33,VWS V14.01,2013-04-15 20:18:00,
2013-04-15 16:23:00,59.4,55.5,30.15,NE,45,2.7,2.7,87,0.00,,OVC014,0.33,VWS V14.01,2013-04-15 20:23:00,
2013-04-15 16:28:00,59.7,55.8,30.18,NE,45,3.1,3.1,87,0.00,,OVC014,0.33,VWS V14.01,2013-04-15 20:28:00,
2013-04-15 16:33:00,59.7,55.8,30.18,NNE,22,3.1,3.1,87,0.00,,OVC014,0.33,VWS V14.01,2013-04-15 20:33:00,
2013-04-15 16:38:00,59.9,55.7,30.18,North,0,3.6,3.6,86,0.00,,OVC014,0.33,VWS V14.01,2013-04-15 20:38:00,
2013-04-15 16:43:00,59.9,55.7,30.15,North,0,2.7,3.1,86,0.00,,OVC011,0.33,VWS V14.01,2013-04-15 20:43:00,
2013-04-15 16:48:00,59.9,55.7,30.15,NNE,22,3.1,3.1,86,0.00,,OVC011,0.33,VWS V14.01,2013-04-15 20:48:00,
2013-04-15 16:53:00,59.9,55.7,30.15,NNE,22,2.7,2.7,86,0.00,,OVC011,0.33,VWS V14.01,2013-04-15 20:53:00,
2013-04-15 16:58:00,59.7,55.5,30.15,NNE,22,2.2,2.2,86,0.00,,OVC011,0.33,VWS V14.01,2013-04-15 20:58:00,
2013-04-15 17:03:00,59.7,55.5,30.15,NNE,22,2.7,2.7,86,0.00,,OVC011,0.33,VWS V14.01,2013-04-15 21:03:00,
2013-04-15 17:08:00,59.9,55.7,30.15,NNE,22,0.0,0.0,86,0.00,,OVC011,0.33,VWS V14.01,2013-04-15 21:08:00,
2013-04-15 17:13:00,59.7,55.5,30.18,NNE,22,3.1,3.1,86,0.00,,OVC011,0.33,VWS V14.01,2013-04-15 21:13:00,
2013-04-15 17:18:00,59.5,55.7,30.18,NNE,22,2.7,3.6,87,0.00,,OVC011,0.33,VWS V14.01,2013-04-15 21:18:00,
2013-04-15 17:23:00,59.7,55.8,30.18,NNE,22,2.2,2.7,87,0.00,,OVC009,0.33,VWS V14.01,2013-04-15 21:23:00,
2013-04-15 17:28:00,59.7,56.2,30.18,NNE,22,0.0,2.7,88,0.00,,OVC009,0.33,VWS V14.01,2013-04-15 21:28:00,
2013-04-15 17:33:00,59.5,56.0,30.18,NNE,22,2.2,2.2,88,0.00,,OVC009,0.33,VWS V14.01,2013-04-15 21:33:00,
2013-04-15 17:38:00,59.5,56.0,30.18,NNE,22,2.2,2.7,88,0.00,,OVC009,0.33,VWS V14.01,2013-04-15 21:38:00,
2013-04-15 17:43:00,59.4,55.8,30.18,NNE,22,0.0,0.0,88,0.00,,OVC009,0.33,VWS V14.01,2013-04-15 21:43:00,
2013-04-15 17:49:00,59.5,56.0,30.18,NNE,22,2.2,2.7,88,0.00,,OVC009,0.33,VWS V14.01,2013-04-15 21:49:00,
2013-04-15 17:54:00,59.5,56.0,30.18,NNE,22,2.2,2.7,88,0.00,,OVC009,0.33,VWS V14.01,2013-04-15 21:54:00,
2013-04-15 17:59:00,59.5,56.3,30.18,NNE,22,2.2,2.2,89,0.00,,OVC009,0.33,VWS V14.01,2013-04-15 21:59:00,
2013-04-15 18:04:00,59.7,56.5,30.18,NNE,22,0.0,2.7,89,0.00,,OVC009,0.33,VWS V14.01,2013-04-15 22:04:00,
2013-04-15 18:09:00,59.7,56.5,30.18,NNE,22,2.7,2.7,89,0.00,,OVC009,0.33,VWS V14.01,2013-04-15 22:09:00,
2013-04-15 18:14:00,59.5,56.3,30.18,NNE,22,2.7,2.7,89,0.00,,OVC009,0.33,VWS V14.01,2013-04-15 22:14:00,
2013-04-15 18:19:00,59.4,56.1,30.18,NNE,22,2.7,2.7,89,0.00,,OVC009,0.33,VWS V14.01,2013-04-15 22:19:00,
2013-04-15 18:24:00,59.4,56.1,30.18,NNE,22,2.7,3.1,89,0.00,,OVC009,0.33,VWS V14.01,2013-04-15 22:24:00,
2013-04-15 18:29:00,59.4,56.1,30.18,NNE,22,3.1,3.1,89,0.00,,OVC009,0.33,VWS V14.01,2013-04-15 22:29:00,
2013-04-15 18:34:00,59.4,56.4,30.18,NNE,22,0.0,0.0,90,0.00,,OVC009,0.33,VWS V14.01,2013-04-15 22:34:00,
2013-04-15 18:39:00,59.4,56.4,30.18,NNE,22,0.0,2.2,90,0.00,,OVC009,0.33,VWS V14.01,2013-04-15 22:39:00,
2013-04-15 18:44:00,59.4,56.4,30.18,NNE,22,3.6,3.6,90,0.00,,OVC011,0.33,VWS V14.01,2013-04-15 22:44:00,
2013-04-15 18:49:00,59.2,56.2,30.18,NNE,22,0.0,2.2,90,0.00,,OVC011,0.33,VWS V14.01,2013-04-15 22:49:00,
2013-04-15 18:54:00,59.2,56.2,30.18,NNE,22,0.0,0.0,90,0.00,,OVC011,0.33,VWS V14.01,2013-04-15 22:54:00,
2013-04-15 18:59:00,59.2,56.6,30.18,NNE,22,2.2,2.2,91,0.00,,OVC011,0.33,VWS V14.01,2013-04-15 22:59:00,
2013-04-15 19:04:00,59.0,56.4,30.18,NNE,22,2.2,3.1,91,0.00,,OVC019,0.33,VWS V14.01,2013-04-15 23:04:00,
2013-04-15 19:09:00,59.0,56.4,30.18,NNE,22,2.2,2.7,91,0.00,,OVC019,0.33,VWS V14.01,2013-04-15 23:09:00,
2013-04-15 19:14:00,58.8,56.5,30.18,NNE,22,2.2,2.7,92,0.00,,OVC019,0.33,VWS V14.01,2013-04-15 23:14:00,
2013-04-15 19:20:00,58.6,56.3,30.18,NNE,22,2.2,3.1,92,0.00,,OVC019,0.33,VWS V14.01,2013-04-15 23:20:00,
2013-04-15 19:25:00,58.5,56.2,30.21,NE,45,2.7,3.6,92,0.00,,OVC017,0.33,VWS V14.01,2013-04-15 23:25:00,
2013-04-15 19:30:00,58.3,56.3,30.21,NE,45,2.7,2.7,93,0.00,,OVC017,0.33,VWS V14.01,2013-04-15 23:30:00,
2013-04-15 19:35:00,58.3,56.3,30.21,NE,45,0.0,2.2,93,0.00,,OVC017,0.33,VWS V14.01,2013-04-15 23:35:00,
2013-04-15 19:40:00,58.3,56.3,30.21,NE,45,0.0,0.0,93,0.00,,OVC017,0.33,VWS V14.01,2013-04-15 23:40:00,
2013-04-15 19:45:00,58.3,56.3,30.21,NE,45,0.0,0.0,93,0.00,,OVC017,0.33,VWS V14.01,2013-04-15 23:45:00,
2013-04-15 19:50:00,58.1,56.4,30.21,NE,45,2.7,2.7,94,0.00,,OVC017,0.33,VWS V14.01,2013-04-15 23:50:00,
2013-04-15 19:55:00,58.1,56.4,30.21,NE,45,0.0,0.0,94,0.00,,OVC017,0.33,VWS V14.01,2013-04-15 23:55:00,
2013-04-15 20:00:00,58.1,56.4,30.21,NE,45,2.2,2.2,94,0.00,,OVC017,0.33,VWS V14.01,2013-04-16 00:00:00,
2013-04-15 20:05:00,57.9,56.2,30.21,NE,45,0.0,2.2,94,0.00,,OVC019,0.33,VWS V14.01,2013-04-16 00:05:00,
2013-04-15 20:10:00,57.9,56.2,30.21,NE,45,0.0,0.0,94,0.00,,OVC019,0.33,VWS V14.01,2013-04-16 00:10:00,
2013-04-15 20:15:00,57.9,56.2,30.21,NE,45,0.0,0.0,94,0.00,,OVC019,0.33,VWS V14.01,2013-04-16 00:15:00,
2013-04-15 20:20:00,57.9,56.5,30.21,NE,45,0.0,0.0,95,0.00,,OVC019,0.33,VWS V14.01,2013-04-16 00:20:00,
2013-04-15 20:25:00,57.7,56.3,30.21,NE,45,0.0,0.0,95,0.00,,OVC019,0.33,VWS V14.01,2013-04-16 00:25:00,
2013-04-15 20:30:00,57.6,56.1,30.21,NE,45,0.0,0.0,95,0.00,,OVC019,0.33,VWS V14.01,2013-04-16 00:30:00,
2013-04-15 20:35:00,57.4,56.0,30.21,NE,45,0.0,0.0,95,0.00,,OVC019,0.33,VWS V14.01,2013-04-16 00:35:00,
2013-04-15 20:40:00,57.2,55.8,30.21,NE,45,0.0,0.0,95,0.00,,BKN039,0.33,VWS V14.01,2013-04-16 00:40:00,
2013-04-15 20:45:00,57.2,56.1,30.21,NE,45,0.0,0.0,96,0.00,,BKN039,0.33,VWS V14.01,2013-04-16 00:45:00,
2013-04-15 20:50:00,57.0,55.9,30.21,NE,45,0.0,0.0,96,0.00,,BKN039,0.33,VWS V14.01,2013-04-16 00:50:00,
2013-04-15 20:55:00,57.0,55.9,30.21,NE,45,0.0,0.0,96,0.00,,BKN039,0.33,VWS V14.01,2013-04-16 00:55:00,
2013-04-15 21:00:00,56.8,56.0,30.21,NE,45,0.0,0.0,97,0.00,,SCT049,0.33,VWS V14.01,2013-04-16 01:00:00,
2013-04-15 21:05:00,56.8,56.0,30.21,NE,45,0.0,0.0,97,0.00,,SCT049,0.33,VWS V14.01,2013-04-16 01:05:00,
2013-04-15 21:10:00,56.8,56.0,30.24,NE,45,0.0,0.0,97,0.00,,SCT049,0.33,VWS V14.01,2013-04-16 01:10:00,
2013-04-15 21:16:00,56.7,55.8,30.24,NE,45,0.0,0.0,97,0.00,,SCT049,0.33,VWS V14.01,2013-04-16 01:16:00,
2013-04-15 21:21:00,56.7,56.1,30.24,NE,45,0.0,0.0,98,0.00,,BKN049,0.33,VWS V14.01,2013-04-16 01:21:00,
2013-04-15 21:26:00,56.7,56.1,30.24,NE,45,0.0,0.0,98,0.00,,BKN049,0.33,VWS V14.01,2013-04-16 01:26:00,
2013-04-15 21:31:00,56.7,56.1,30.24,NE,45,0.0,0.0,98,0.00,,BKN049,0.33,VWS V14.01,2013-04-16 01:31:00,
2013-04-15 21:36:00,56.7,56.1,30.24,NE,45,0.0,0.0,98,0.00,,BKN049,0.33,VWS V14.01,2013-04-16 01:36:00,
2013-04-15 21:41:00,56.8,56.3,30.24,NE,45,0.0,0.0,98,0.00,,OVC049,0.33,VWS V14.01,2013-04-16 01:41:00,
2013-04-15 21:46:00,56.7,56.1,30.24,NE,45,0.0,0.0,98,0.00,,OVC049,0.33,VWS V14.01,2013-04-16 01:46:00,
2013-04-15 21:51:00,56.8,56.3,30.24,NE,45,0.0,0.0,98,0.00,,OVC049,0.33,VWS V14.01,2013-04-16 01:51:00,
2013-04-15 21:56:00,56.8,56.3,30.24,NE,45,0.0,0.0,98,0.00,,OVC049,0.33,VWS V14.01,2013-04-16 01:56:00,
2013-04-15 22:01:00,56.8,56.3,30.24,NE,45,0.0,0.0,98,0.00,,OVC049,0.33,VWS V14.01,2013-04-16 02:01:00,
2013-04-15 22:06:00,56.8,56.3,30.24,NE,45,0.0,0.0,98,0.00,,OVC049,0.33,VWS V14.01,2013-04-16 02:06:00,
2013-04-15 22:12:00,56.8,56.3,30.24,NE,45,0.0,0.0,98,0.00,,OVC049,0.33,VWS V14.01,2013-04-16 02:12:00,
2013-04-15 22:17:00,56.8,56.3,30.24,NE,45,0.0,0.0,98,0.00,,OVC049,0.33,VWS V14.01,2013-04-16 02:17:00,
2013-04-15 22:22:00,56.8,56.3,30.24,NE,45,0.0,0.0,98,0.00,,OVC049,0.33,VWS V14.01,2013-04-16 02:22:00,
2013-04-15 22:27:00,56.8,56.3,30.24,NE,45,0.0,0.0,98,0.00,,OVC049,0.33,VWS V14.01,2013-04-16 02:27:00,
2013-04-15 22:32:00,56.8,56.3,30.24,NE,45,0.0,0.0,98,0.00,,OVC049,0.33,VWS V14.01,2013-04-16 02:32:00,
2013-04-15 22:37:00,56.8,56.3,30.24,NE,45,0.0,0.0,98,0.00,,OVC049,0.33,VWS V14.01,2013-04-16 02:37:00,
2013-04-15 22:42:00,56.8,56.3,30.24,NE,45,0.0,0.0,98,0.00,,OVC049,0.33,VWS V14.01,2013-04-16 02:42:00,
2013-04-15 22:47:00,56.8,56.3,30.24,NE,45,0.0,0.0,98,0.00,,OVC049,0.33,VWS V14.01,2013-04-16 02:47:00,
2013-04-15 22:52:00,56.8,56.3,30.24,NE,45,0.0,0.0,98,0.00,,OVC049,0.33,VWS V14.01,2013-04-16 02:52:00,
2013-04-15 22:57:00,57.0,56.5,30.24,NE,45,0.0,0.0,98,0.00,,OVC049,0.33,VWS V14.01,2013-04-16 02:57:00,
2013-04-15 23:02:00,57.0,56.5,30.24,NE,45,0.0,0.0,98,0.00,,OVC049,0.33,VWS V14.01,2013-04-16 03:02:00,
2013-04-15 23:07:00,57.2,56.6,30.24,NE,45,0.0,0.0,98,0.00,,OVC049,0.33,VWS V14.01,2013-04-16 03:07:00,
2013-04-15 23:12:00,57.2,56.6,30.27,NE,45,0.0,0.0,98,0.00,,OVC049,0.33,VWS V14.01,2013-04-16 03:12:00,
2013-04-15 23:17:00,57.2,56.6,30.27,NE,45,0.0,0.0,98,0.00,,OVC049,0.33,VWS V14.01,2013-04-16 03:17:00,
2013-04-15 23:22:00,57.2,56.6,30.27,NE,45,0.0,0.0,98,0.00,,OVC049,0.33,VWS V14.01,2013-04-16 03:22:00,
2013-04-15 23:27:00,57.2,56.6,30.27,NE,45,0.0,0.0,98,0.00,,OVC049,0.33,VWS V14.01,2013-04-16 03:27:00,
2013-04-15 23:32:00,57.2,56.6,30.27,NE,45,0.0,0.0,98,0.00,,OVC049,0.33,VWS V14.01,2013-04-16 03:32:00,
2013-04-15 23:37:00,57.2,56.6,30.27,NE,45,0.0,0.0,98,0.00,,OVC049,0.33,VWS V14.01,2013-04-16 03:37:00,
2013-04-15 23:42:00,57.2,56.6,30.27,NE,45,0.0,0.0,98,0.00,,OVC031,0.33,VWS V14.01,2013-04-16 03:42:00,
2013-04-15 23:47:00,57.2,56.6,30.27,NE,45,0.0,0.0,98,0.00,,OVC031,0.33,VWS V14.01,2013-04-16 03:47:00,
2013-04-15 23:52:00,57.2,56.6,30.27,NE,45,0.0,0.0,98,0.00,,OVC031,0.33,VWS V14.01,2013-04-16 03:52:00,
2013-04-15 23:57:00,57.2,56.6,30.27,NE,45,0.0,0.0,98,0.00,,OVC031,0.33,VWS V14.01,2013-04-16 03:57:00,